Location: Hiram
(41.3130°N, 81.1440°W)
Time: 01:26:59
(UTC-04:00)

Iridium 62 - Visible Passes

Search period start: 28 August 2015 00:00
Search period end: 07 September 2015 00:00
Orbit: 776 x 779 km, 86.4° (Epoch: 27 August)

Date Brightness Start Highest point End Pass type
(mag) Time Alt. Az. Time Alt. Az. Time Alt. Az.
28 Aug 8.1 00:53:40 10° NNW 00:55:37 20° NW 00:55:37 20° NW visible
28 Aug 7.9 22:40:10 10° NNE 22:41:41 15° NE 22:41:41 15° NE visible
29 Aug 7.7 00:19:41 10° NNW 00:22:09 27° NNW 00:22:09 27° NNW visible
29 Aug 7.4 23:46:02 10° N 23:48:41 31° N 23:48:41 31° N visible
30 Aug 7.4 23:12:39 10° N 23:15:13 27° NNE 23:15:13 27° NNE visible
31 Aug 8.3 00:54:17 10° NW 00:55:42 15° NW 00:55:42 15° NW visible
31 Aug 7.6 22:39:39 10° NNE 22:41:46 20° NE 22:41:46 20° NE visible
01 Sep 7.9 00:19:59 10° NNW 00:22:14 23° NW 00:22:14 23° NW visible
01 Sep 8.0 22:07:21 10° NE 22:08:20 12° NE 22:08:20 12° NE visible
01 Sep 7.5 23:46:09 10° N 23:48:48 30° NNW 23:48:48 30° NNW visible
02 Sep 7.3 23:12:36 10° N 23:15:21 31° NNE 23:15:21 31° NNE visible
03 Sep 8.6 00:55:16 10° NW 00:55:49 11° NW 00:55:49 11° NW visible
03 Sep 7.4 22:39:21 10° NNE 22:41:55 25° NE 22:41:55 25° NE visible
04 Sep 8.2 00:20:27 10° NNW 00:22:23 19° NW 00:22:23 19° NW visible
04 Sep 7.7 22:06:33 10° NNE 22:08:30 17° NE 22:08:30 17° NE visible
04 Sep 7.7 23:46:23 10° NNW 23:48:58 27° NNW 23:48:58 27° NNW visible
05 Sep 8.0 21:35:04 10° NE 21:35:04 10° NE 21:35:04 10° NE visible
05 Sep 7.2 23:12:39 10° N 23:15:33 34° N 23:15:33 34° N visible
06 Sep 7.1 22:39:14 10° N 22:42:08 31° NNE 22:42:08 31° NNE visible
